{"data":{"norad_id":64365,"intl_designator":"2025-126X","name":"STARLINK-34479","alt_names":[],"object_type":"PAYLOAD","status":"ACTIVE","operator":null,"country":"US","launch_date":"2025-06-13","launch_site_code":"AFWTR","launch_vehicle":null,"mission":null,"orbit_class":"UNKNOWN","rcs_meters":null,"size_class":null,"mass_kg":null,"dimensions":null,"purposes":["comms"],"wikipedia_slug":null,"has_3d_model":false,"image_url":null,"decayed_at":null,"tle_current":{"epoch":"2026-09-20T16:47:33.119232Z","epoch_age_seconds":117210,"freshness":"FRESH","line1":"1 64365U 25126X   26263.69968888  .00015760  00000+0  55141-3 0  9998","line2":"2 64365  70.0005 260.3250 0003247 269.6916  90.3887 15.29586277 69957","mean_motion":15.29586277,"eccentricity":0.0003247,"inclination_deg":70.0005,"raan_deg":260.325,"arg_perigee_deg":269.6916,"mean_anomaly_deg":90.3887,"bstar":0.00055141,"rev_number":6995,"period_min":94.143104030999,"perigee_km":474.82226973548,"apogee_km":479.27402697082,"semimajor_km":6855.1851483532,"source":"CELESTRAK","updated_at":"2026-09-21T09:00:35.320329Z"}}}